When you browse on this site, cookies collect data to enhance your experience and personalize the content and advertising you see.
Visit our Privacy Policy to learn more. By continuing to use the site, you agree to this use of cookies and data.
  • In United Kingdom
  • List of Countries
  • For 7 days
  • Water Temperature
  • Weather Map
  • Weather Widgets
  • user-avatar
    Login

    Hourly Weather Schleswig

    Today, 25 August, Sunday

    Time Temperature Precipitation Wind Pressure Humidity
    00:00 +17°C° 0 mm 3 mps 764 mmHg 84%
    01:00 +17°C° 0 mm 3 mps 764 mmHg 85%
    02:00 +17°C° 0 mm 3 mps 764 mmHg 85%
    03:00 +17°C° 0 mm 3 mps 764 mmHg 85%
    04:00 +17°C° 0 mm 3 mps 764 mmHg 85%
    05:00 +17°C° 0 mm 3 mps 764 mmHg 84%
    06:00 +18°C° 0 mm 3 mps 763 mmHg 82%
    07:00 +19°C° 0 mm 3 mps 763 mmHg 81%
    08:00 +20°C° 0 mm 3 mps 763 mmHg 75%
    09:00 +22°C° 0 mm 3 mps 764 mmHg 69%
    10:00 +25°C° 0 mm 3 mps 764 mmHg 64%
    11:00 +26°C° 0 mm 3 mps 764 mmHg 62%
    12:00 +27°C° 0 mm 3 mps 763 mmHg 59%
    13:00 +27°C° 0 mm 4 mps 763 mmHg 57%
    14:00 +27°C° 0 mm 3 mps 763 mmHg 60%
    15:00 +27°C° 0 mm 3 mps 763 mmHg 62%
    16:00 +27°C° 0 mm 3 mps 763 mmHg 64%
    17:00 +25°C° 0 mm 3 mps 763 mmHg 70%
    18:00 +24°C° 0 mm 3 mps 763 mmHg 75%
    19:00 +22°C° 0 mm 3 mps 763 mmHg 81%
    20:00 +21°C° 0 mm 3 mps 763 mmHg 82%
    21:00 +20°C° 0 mm 3 mps 763 mmHg 83%
    22:00 +20°C° 0 mm 3 mps 763 mmHg 84%
    23:00 +19°C° 0 mm 3 mps 763 mmHg 85%

    Tomorrow, 26 August, Monday

    Time Temperature Precipitation Wind Pressure Humidity
    00:00 +19°C° 0 mm 3 mps 763 mmHg 86%
    01:00 +19°C° 0 mm 3 mps 763 mmHg 86%
    02:00 +19°C° 0 mm 2 mps 763 mmHg 87%
    03:00 +19°C° 0 mm 2 mps 762 mmHg 88%
    04:00 +19°C° 0 mm 2 mps 762 mmHg 89%
    05:00 +19°C° 0 mm 2 mps 762 mmHg 87%
    06:00 +20°C° 0 mm 2 mps 762 mmHg 86%
    07:00 +20°C° 0 mm 2 mps 762 mmHg 84%
    08:00 +22°C° 0 mm 3 mps 762 mmHg 80%
    09:00 +25°C° 0 mm 3 mps 762 mmHg 75%
    10:00 +26°C° 0 mm 3 mps 762 mmHg 71%
    11:00 +27°C° 0 mm 3 mps 762 mmHg 67%
    12:00 +28°C° 0 mm 3 mps 762 mmHg 64%
    13:00 +29°C° 0 mm 4 mps 762 mmHg 61%
    14:00 +29°C° 0 mm 4 mps 762 mmHg 62%
    15:00 +28°C° 0 mm 4 mps 761 mmHg 62%
    16:00 +28°C° 0 mm 4 mps 761 mmHg 63%
    17:00 +26°C° 0 mm 4 mps 761 mmHg 69%
    18:00 +25°C° 0 mm 4 mps 761 mmHg 74%
    19:00 +22°C° 0 mm 3 mps 761 mmHg 79%
    20:00 +22°C° 0 mm 3 mps 761 mmHg 81%
    21:00 +21°C° 0 mm 3 mps 761 mmHg 83%
    22:00 +20°C° 0 mm 3 mps 761 mmHg 84%
    23:00 +20°C° 0.1 mm 3 mps 761 mmHg 86%

    Day after tomorrow, 27 August, Tuesday

    Time Temperature Precipitation Wind Pressure Humidity
    00:00 +20°C° 0.1 mm 3 mps 761 mmHg 87%
    01:00 +20°C° 0.1 mm 3 mps 761 mmHg 89%
    02:00 +20°C° 0.1 mm 3 mps 761 mmHg 89%
    03:00 +19°C° 0.1 mm 3 mps 761 mmHg 90%
    04:00 +19°C° 0.1 mm 3 mps 760 mmHg 91%
    05:00 +20°C° 0 mm 3 mps 760 mmHg 89%
    06:00 +20°C° 0 mm 3 mps 760 mmHg 87%
    07:00 +21°C° 0 mm 3 mps 760 mmHg 86%
    08:00 +22°C° 0 mm 3 mps 761 mmHg 81%
    09:00 +25°C° 0 mm 4 mps 761 mmHg 75%
    10:00 +27°C° 0 mm 4 mps 761 mmHg 70%
    11:00 +28°C° 0 mm 4 mps 761 mmHg 67%
    12:00 +28°C° 0 mm 4 mps 760 mmHg 65%
    13:00 +29°C° 0 mm 4 mps 760 mmHg 62%
    14:00 +29°C° 0.3 mm 4 mps 760 mmHg 64%
    15:00 +29°C° 0.3 mm 4 mps 760 mmHg 66%
    16:00 +29°C° 0.3 mm 4 mps 759 mmHg 68%
    17:00 +27°C° 0.5 mm 3 mps 759 mmHg 73%
    18:00 +25°C° 0.5 mm 3 mps 759 mmHg 78%
    19:00 +24°C° 0.5 mm 3 mps 759 mmHg 84%
    20:00 +22°C° 0.3 mm 3 mps 759 mmHg 86%
    21:00 +21°C° 0.3 mm 3 mps 759 mmHg 88%
    22:00 +20°C° 0.3 mm 3 mps 760 mmHg 90%
    23:00 +20°C° 0.1 mm 3 mps 759 mmHg 91%

    28 August, Wednesday

    Time Temperature Precipitation Wind Pressure Humidity
    00:00 +20°C° 0.1 mm 3 mps 759 mmHg 91%
    01:00 +20°C° 0.1 mm 3 mps 759 mmHg 92%
    02:00 +20°C° 0 mm 2 mps 759 mmHg 92%
    03:00 +21°C° 0 mm 1 mps 759 mmHg 93%
    04:00 +20°C° 0 mm 1 mps 758 mmHg 93%
    05:00 +21°C° 0 mm 1 mps 758 mmHg 91%
    06:00 +22°C° 0 mm 1 mps 758 mmHg 89%
    07:00 +22°C° 0 mm 1 mps 758 mmHg 87%
    08:00 +24°C° 0 mm 2 mps 758 mmHg 83%
    09:00 +25°C° 0 mm 3 mps 758 mmHg 79%
    10:00 +26°C° 0 mm 3 mps 758 mmHg 75%
    11:00 +27°C° 0.5 mm 4 mps 758 mmHg 73%
    12:00 +28°C° 0.5 mm 4 mps 758 mmHg 71%
    13:00 +28°C° 0.5 mm 4 mps 757 mmHg 68%
    14:00 +28°C° 0.3 mm 3 mps 757 mmHg 69%
    15:00 +28°C° 0.3 mm 3 mps 757 mmHg 70%
    16:00 +28°C° 0.3 mm 3 mps 757 mmHg 70%
    17:00 +27°C° 0.2 mm 3 mps 756 mmHg 74%
    18:00 +26°C° 0.2 mm 2 mps 756 mmHg 78%
    19:00 +24°C° 0.2 mm 2 mps 756 mmHg 82%
    20:00 +24°C° 0 mm 2 mps 756 mmHg 84%
    21:00 +22°C° 0 mm 3 mps 756 mmHg 87%
    22:00 +21°C° 0 mm 3 mps 756 mmHg 89%
    23:00 +21°C° 0 mm 2 mps 755 mmHg 89%

    29 August, Thursday

    Time Temperature Precipitation Wind Pressure Humidity
    00:00 +21°C° 0 mm 2 mps 755 mmHg 88%
    01:00 +21°C° 0 mm 2 mps 755 mmHg 88%
    02:00 +21°C° 0 mm 2 mps 755 mmHg 88%
    03:00 +21°C° 0 mm 2 mps 755 mmHg 89%
    04:00 +21°C° 0 mm 2 mps 755 mmHg 89%
    05:00 +21°C° 0 mm 2 mps 754 mmHg 88%
    06:00 +21°C° 0 mm 2 mps 754 mmHg 88%
    07:00 +21°C° 0 mm 2 mps 754 mmHg 88%
    08:00 +24°C° 0 mm 2 mps 754 mmHg 83%
    09:00 +25°C° 0 mm 2 mps 755 mmHg 78%
    10:00 +26°C° 0 mm 2 mps 755 mmHg 73%
    11:00 +25°C° 0 mm 3 mps 755 mmHg 74%
    12:00 +23°C° 0 mm 4 mps 755 mmHg 74%
    13:00 +23°C° 0 mm 5 mps 756 mmHg 75%
    14:00 +22°C° 0 mm 5 mps 756 mmHg 77%
    15:00 +22°C° 0 mm 4 mps 756 mmHg 79%
    16:00 +21°C° 0 mm 4 mps 756 mmHg 81%
    17:00 +21°C° 0 mm 4 mps 756 mmHg 84%
    18:00 +20°C° 0 mm 4 mps 757 mmHg 86%
    19:00 +20°C° 0 mm 4 mps 757 mmHg 89%
    20:00 +19°C° 0 mm 4 mps 757 mmHg 87%
    21:00 +18°C° 0 mm 4 mps 758 mmHg 86%
    22:00 +18°C° 0 mm 4 mps 759 mmHg 85%
    23:00 +17°C° 0 mm 4 mps 759 mmHg 87%

    30 August, Friday

    Time Temperature Precipitation Wind Pressure Humidity
    00:00 +15°C° 0 mm 4 mps 759 mmHg 89%
    01:00 +14°C° 0 mm 4 mps 759 mmHg 91%
    02:00 +14°C° 0 mm 4 mps 760 mmHg 90%
    03:00 +14°C° 0 mm 4 mps 760 mmHg 90%
    04:00 +14°C° 0 mm 4 mps 760 mmHg 90%
    05:00 +14°C° 0 mm 3 mps 760 mmHg 87%
    06:00 +14°C° 0 mm 3 mps 761 mmHg 84%
    07:00 +14°C° 0 mm 3 mps 761 mmHg 82%
    08:00 +17°C° 0 mm 3 mps 761 mmHg 76%
    09:00 +18°C° 0 mm 4 mps 762 mmHg 70%
    10:00 +20°C° 0 mm 5 mps 762 mmHg 64%
    11:00 +20°C° 0 mm 5 mps 762 mmHg 63%
    12:00 +20°C° 0 mm 5 mps 762 mmHg 62%
    13:00 +20°C° 0 mm 5 mps 762 mmHg 61%
    14:00 +20°C° 0 mm 5 mps 762 mmHg 62%
    15:00 +20°C° 0 mm 4 mps 762 mmHg 63%
    16:00 +20°C° 0 mm 4 mps 762 mmHg 63%
    17:00 +19°C° 0 mm 4 mps 762 mmHg 69%
    18:00 +18°C° 0 mm 3 mps 762 mmHg 75%
    19:00 +17°C° 0 mm 2 mps 762 mmHg 81%
    20:00 +16°C° 0 mm 2 mps 762 mmHg 84%
    21:00 +15°C° 0 mm 2 mps 762 mmHg 87%
    22:00 +15°C° 0 mm 2 mps 762 mmHg 90%
    23:00 +15°C° 0 mm 2 mps 762 mmHg 91%
    Show more